Demopolis Municipal Airport, AL

11:44 AM CST on November 22, 2019 (GMT -0600)
Demopolis Municipal Airport

Weather History for KDYA - September, 2019

Change the Weather History Date:

Saturday, September 7, 2019

  Actual Average (WUND) Record (WUND)
Temperature  
Mean Temperature 82 °F -  
Max Temperature 95 °F - - (-1)
Min Temperature 68 °F - - (-1)
Cooling Degree Days 16    
Growing Degree Days 32 (Base 50)    
Moisture  
Dew Point 71 °F    
Average Humidity 75    
Maximum Humidity 100    
Minimum Humidity 44    
Precipitation  
Precipitation 0.00 in - - ()
Sea Level Pressure  
Sea Level Pressure 29.96 in    
Wind  
Wind Speed 1 mph ()    
Max Wind Speed 7 mph    
Max Gust Speed -    
Visibility 7.4 miles    
Events      
Averages and records for this station are not official NWS values.
T = Trace of Precipitation, MM = Missing Value Source: Averaged Metar Reports

Daily Weather History Graph

Daily Weather History Graph

Search for Another Location

Airport or City:

Astronomy

Sep. 07, 2019 Rise Set
Actual Time 6:30 AM CDT 7:08 PM CDT
Civil Twilight 6:05 AM CDT 7:33 PM CDT
Nautical Twilight 5:36 AM CDT 8:02 PM CDT
Astronomical Twilight 5:06 AM CDT 8:32 PM CDT
Moon 3:08 PM CDT (9/7) 12:37 AM CDT (9/7)
Length of Visible Light 13h 27m
Length of Day
12h 38m
Waxing Gibbous, 66% of the Moon is Illuminated
Sep 7
Waxing Gibbous
Sep 13
Full
Sep 21
Last Quarter
Sep 28
New
Oct 5
First Quarter

Hourly Weather History & Observations

Time (CDT) Temp. Heat Index Dew Point Humidity Pressure Visibility Wind Dir Wind Speed Gust Speed Precip Events Conditions
12:15 AM 70.9 °F - 68.2 °F 91% 29.97 in 7.0 mi Calm Calm - N/A   Clear
12:55 AM 70.7 °F - 68.4 °F 92% 29.98 in 7.0 mi Calm Calm - N/A   Clear
1:15 AM 70.3 °F - 68.4 °F 93% 29.98 in 7.0 mi Calm Calm - N/A   Clear
1:35 AM 70.3 °F - 68.4 °F 93% 29.97 in 7.0 mi Calm Calm - N/A   Clear
1:55 AM 70.0 °F - 68.4 °F 95% 29.97 in 7.0 mi Calm Calm - N/A   Clear
2:15 AM 70.0 °F - 68.4 °F 95% 29.97 in 7.0 mi Calm Calm - N/A   Clear
2:35 AM 70.0 °F - 68.2 °F 94% 29.96 in 7.0 mi Calm Calm - N/A   Clear
2:55 AM 69.3 °F - 68.0 °F 96% 29.96 in 7.0 mi Calm Calm - N/A   Clear
3:15 AM 68.9 °F - 68.0 °F 97% 29.96 in 7.0 mi Calm Calm - N/A   Clear
3:35 AM 68.9 °F - 68.0 °F 97% 29.96 in 7.0 mi Calm Calm - N/A   Clear
3:55 AM 69.1 °F - 68.4 °F 98% 29.96 in 7.0 mi Calm Calm - N/A   Clear
4:15 AM 68.9 °F - 68.0 °F 97% 29.97 in 7.0 mi Calm Calm - N/A   Clear
4:35 AM 68.9 °F - 68.4 °F 98% 29.97 in 7.0 mi Calm Calm - N/A   Clear
5:15 AM 68.5 °F - 68.5 °F 100% 29.97 in 7.0 mi Calm Calm - N/A   Clear
5:35 AM 68.5 °F - 68.5 °F 100% 29.97 in 5.0 mi Calm Calm - N/A   Clear
5:55 AM 68.5 °F - 68.5 °F 100% 29.98 in 7.0 mi Calm Calm - N/A   Clear
6:15 AM 68.4 °F - 68.4 °F 100% 29.98 in 7.0 mi Calm Calm - N/A   Clear
6:35 AM 68.2 °F - 68.2 °F 100% 29.99 in 7.0 mi Calm Calm - N/A   Clear
6:55 AM 68.4 °F - 68.4 °F 100% 29.99 in 7.0 mi Calm Calm - N/A   Clear
7:15 AM 68.9 °F - 68.9 °F 100% 30.00 in 7.0 mi Calm Calm - N/A   Clear
7:35 AM 70.0 °F - 70.0 °F 100% 30.00 in 7.0 mi Calm Calm - N/A   Clear
7:55 AM 72.5 °F - 72.5 °F 100% 30.00 in 5.0 mi Calm Calm - N/A   Clear
8:15 AM 75.6 °F - 72.1 °F 89% 30.01 in 5.0 mi Calm Calm - N/A   Clear
8:35 AM 77.7 °F - 72.0 °F 82% 30.01 in 7.0 mi Calm Calm - N/A   Clear
9:15 AM 80.8 °F 84.7 °F 71.6 °F 73% 30.01 in 7.0 mi Calm Calm - N/A   Clear
9:35 AM 82.6 °F 87.8 °F 72.1 °F 71% 30.01 in 7.0 mi Calm Calm - N/A   Clear
9:55 AM 84.2 °F 90.3 °F 72.5 °F 68% 30.00 in 7.0 mi WNW 3.5 mph - N/A   Clear
10:15 AM 86.0 °F 93.0 °F 72.9 °F 65% 30.00 in 7.0 mi Calm Calm - N/A   Clear
10:35 AM 87.8 °F 94.7 °F 72.5 °F 60% 30.01 in 7.0 mi WNW 3.5 mph - N/A   Clear
10:55 AM 88.3 °F 95.4 °F 72.5 °F 59% 30.00 in 10.0 mi Calm Calm - N/A   Clear
11:15 AM 89.6 °F 96.6 °F 72.0 °F 56% 29.99 in 10.0 mi Calm Calm - N/A   Clear
11:35 AM 90.3 °F 97.7 °F 72.0 °F 55% 29.99 in 10.0 mi WSW 3.5 mph - N/A   Clear
11:55 AM 91.4 °F 98.4 °F 71.4 °F 52% 29.98 in 10.0 mi WNW 4.6 mph - N/A   Clear
12:15 PM 92.3 °F 99.7 °F 72.0 °F 51% 29.98 in 7.0 mi NE 3.5 mph - N/A   Clear
12:35 PM 92.7 °F 100.5 °F 72.1 °F 51% 29.97 in 10.0 mi WNW 3.5 mph - N/A   Clear
12:55 PM 93.6 °F 100.1 °F 70.7 °F 47% 29.97 in 7.0 mi WNW 6.9 mph - N/A   Scattered Clouds
1:15 PM 93.9 °F 99.7 °F 69.8 °F 45% 29.97 in 7.0 mi NNW 5.8 mph - N/A   Scattered Clouds
1:35 PM 94.1 °F 100.6 °F 70.2 °F 46% 29.96 in 7.0 mi North 6.9 mph - N/A   Scattered Clouds
1:55 PM 93.6 °F 99.5 °F 69.6 °F 46% 29.96 in 10.0 mi NW 5.8 mph - N/A   Mostly Cloudy
2:15 PM 94.6 °F 100.5 °F 69.8 °F 44% 29.95 in 10.0 mi North 4.6 mph - N/A   Scattered Clouds
2:35 PM 94.8 °F 101.5 °F 70.3 °F 45% 29.94 in 7.0 mi North 4.6 mph - N/A   Clear
2:55 PM 95.2 °F 102.3 °F 70.7 °F 45% 29.93 in 7.0 mi NW 6.9 mph - N/A   Clear
3:15 PM 94.5 °F 100.2 °F 69.4 °F 44% 29.93 in 7.0 mi NNW 5.8 mph - N/A   Clear
3:35 PM 95.2 °F 102.3 °F 70.7 °F 45% 29.92 in 7.0 mi North 6.9 mph - N/A   Scattered Clouds
3:55 PM 95.2 °F 101.7 °F 69.8 °F 44% 29.92 in 7.0 mi Calm Calm - N/A   Scattered Clouds
4:15 PM 94.6 °F 101.1 °F 70.3 °F 45% 29.92 in 10.0 mi North 4.6 mph - N/A   Scattered Clouds
4:35 PM 94.8 °F 101.5 °F 70.5 °F 45% 29.91 in 7.0 mi Calm Calm - N/A   Scattered Clouds
4:55 PM 94.8 °F 100.9 °F 70.0 °F 44% 29.91 in 7.0 mi North 3.5 mph - N/A   Clear
5:35 PM 94.1 °F 99.5 °F 69.4 °F 44% 29.91 in 7.0 mi Calm Calm - N/A   Clear
5:55 PM 93.6 °F 99.5 °F 70.0 °F 46% 29.91 in 7.0 mi Calm Calm - N/A   Clear
6:15 PM 93.0 °F 100.7 °F 71.8 °F 50% 29.91 in 7.0 mi Calm Calm - N/A   Clear
6:35 PM 90.5 °F 102.1 °F 76.1 °F 62% 29.91 in 7.0 mi Calm Calm - N/A   Clear
6:55 PM 87.6 °F 99.7 °F 77.4 °F 71% 29.92 in 7.0 mi Calm Calm - N/A   Clear
7:15 PM 85.8 °F 95.9 °F 76.5 °F 73% 29.92 in 10.0 mi Calm Calm - N/A   Clear
7:35 PM 83.8 °F 92.1 °F 75.4 °F 76% 29.92 in 10.0 mi Calm Calm - N/A   Clear
7:55 PM 82.2 °F 89.3 °F 75.4 °F 80% 29.93 in 7.0 mi Calm Calm - N/A   Clear
8:15 PM 81.1 °F 87.4 °F 75.4 °F 83% 29.93 in 7.0 mi Calm Calm - N/A   Clear
8:35 PM 80.8 °F 86.5 °F 75.2 °F 83% 29.94 in 10.0 mi Calm Calm - N/A   Clear
8:55 PM 79.9 °F - 75.4 °F 86% 29.94 in 10.0 mi Calm Calm - N/A   Clear
9:15 PM 79.3 °F - 75.4 °F 88% 29.94 in 10.0 mi Calm Calm - N/A   Clear
9:35 PM 79.0 °F - 75.6 °F 89% 29.95 in 7.0 mi Calm Calm - N/A   Clear
10:15 PM 77.7 °F - 75.6 °F 93% 29.95 in 7.0 mi Calm Calm - N/A   Clear
10:35 PM 77.2 °F - 75.6 °F 95% 29.95 in 7.0 mi Calm Calm - N/A   Clear
10:55 PM 77.0 °F - 75.6 °F 95% 29.96 in 5.0 mi Calm Calm - N/A   Clear
11:15 PM 77.0 °F - 75.6 °F 95% 29.96 in 5.0 mi Calm Calm - N/A   Clear
11:35 PM 76.3 °F - 75.4 °F 97% 29.96 in 5.0 mi Calm Calm - N/A   Clear